Location: Newark
(44.3482°N, 5.8373°E)
Time: 11:32:51
(UTC+00:00)

ISS - Visible Passes

Search period start: 07 December 2019 00:00
Search period end: 17 December 2019 00:00
Orbit: 411 x 421 km, 51.6° (Epoch: 07 December)

Date Brightness Start Highest point End Pass type
(mag) Time Alt. Az. Time Alt. Az. Time Alt. Az.
07 Dec -2.8 16:37:56 10° NW 16:41:01 32° NNE 16:44:04 10° E visible
07 Dec -2.4 18:14:36 10° WNW 18:17:00 40° W 18:17:00 40° W visible
08 Dec -3.9 17:26:05 10° WNW 17:29:28 88° NE 17:31:03 29° ESE visible
08 Dec -0.1 19:04:00 10° W 19:04:00 10° W 19:04:00 10° W visible
09 Dec -3.7 16:37:38 10° NW 16:40:57 58° NNE 16:44:16 10° ESE visible
09 Dec -1.5 18:14:47 10° W 18:17:29 22° SW 18:18:20 20° SSW visible
10 Dec -2.2 17:25:59 10° WNW 17:29:07 36° SW 17:32:14 10° SSE visible
11 Dec -3.2 16:37:22 10° WNW 16:40:41 61° SW 16:43:59 10° SE visible
12 Dec -0.6 17:26:35 10° W 17:28:31 15° SW 17:30:28 10° SSW visible
13 Dec -1.1 16:37:25 10° W 16:40:11 24° SW 16:42:56 10° SSE visible
